Regional Weather Roundup
Issued by NWS

Home | Current Version | Previous Version | Text Only | Print | Product List | Glossary Off
Versions: 1 2 3 4 5 6 7 8 9 10 11 12 13 14 15 16 17 18 19 20 21 22 23 24 25 26 27 28 29 30 31 32 33 34 35 36 37 38 39 40 41 42 43 44 45 46 47 48 49 50

224
ASUS45 KBOU 210610
RWRCO

WEATHER ROUNDUP FOR COLORADO
NATIONAL WEATHER SERVICE DENVER/BOULDER CO
1100 PM MST MON NOV 20 2017

NOTE: "FAIR" INDICATES FEW OR NO CLOUDS BELOW 12000 FEET WITH NO
SIGNIFICANT WEATHER AND/OR OBSTRUCTIONS TO VISIBILITY.

COZ001>005-013-030-031-210700-
...NORTHWEST COLORADO...

CITY           SKY/WX    TMP DP  RH WIND       PRES   REMARKS
CRAIG          CLOUDY    31  26  82 SE5       30.13S WCI  26
HAYDEN         CLOUDY    34  24  67 CALM      30.14S
MEEKER         FAIR      39  17  41 CALM      30.16R
RABBIT EARS PA CLOUDY    27  10  50 W8G20     30.17F WCI  18
STEAMBOAT SPGS CLOUDY    32  25  74 CALM      30.13S
WALDEN         CLOUDY    37  14  38 W18       30.11S
$$

COZ006>008-011-210700-
...WEST CENTRAL VALLEYS...

CITY           SKY/WX    TMP DP  RH WIND       PRES   REMARKS
GRAND JUNCTION FAIR      33  18  53 E3        30.21S
MONTROSE       FAIR      32  25  75 S6        30.26R WCI  26
EAGLE          FAIR      34  18  52 VRB5      30.18R WCI  30
RIFLE          CLOUDY    33  27  78 SE5       30.22R WCI  29
DELTA          FAIR      34  20  57 NE5       30.25R WCI  30
NUCLA          FAIR      32  10  40 CALM      30.27R
$$

COZ017>023-064>068-210700-
...SOUTHWEST COLORADO...

CITY           SKY/WX    TMP DP  RH WIND       PRES   REMARKS
DURANGO        FAIR      25  14  63 N3        30.18R
CORTEZ         FAIR      31  16  54 E6        30.21R WCI  25
PAGOSA SPRINGS FAIR      27  15  61 NE5       30.19S WCI  22
TELLURIDE      MOCLDY    37   9  31 SE3       30.30R
WOLF CREEK PAS FAIR      32  14  47 W7G16     30.32S WCI  26
$$

COZ009-010-012-014-032>034-037-058>063-210700-
...CENTRAL COLORADO...

CITY           SKY/WX    TMP DP  RH WIND       PRES   REMARKS
ASPEN          CLOUDY    31  22  69 SE3       30.19R
BUENA VISTA    FAIR      44  -4  13 W24G39    30.07R
COPPER MTN     CLOUDY    28   3  34 MISG      30.23R
BERTHOUD PASS  CLOUDY    21  10  63 NW31G44   30.18R WCI   3
COTTONWOOD PAS FAIR      43  -6  13 W24G48    30.12R
GUNNISON       FAIR      25  20  81 CALM      30.24R
KREMMLING      CLOUDY    43   5  21 S6        30.13R
LEADVILLE      CLOUDY    33   2  26 N9        30.18R WCI  25
MONARCH PASS   FAIR      27  -6  24 W31G38    30.34R WCI  10
SALIDA         FAIR      50  -2  11 W22G37    30.13R
SUNLIGHT       FAIR      27   1  33 SW15G30   30.28R WCI  15
WILKERSON PASS FAIR      32   5  32 NW20G40   30.13F WCI  20
$$

COZ069>075-210700-
...SAN LUIS VALLEY/SANGRE DE CRISTO MOUNTAINS...

CITY           SKY/WX    TMP DP  RH WIND       PRES   REMARKS
ALAMOSA        FAIR      25   9  50 W6        30.12R WCI  18
DEL NORTE      FAIR      29   6  38 CALM      30.12S
LA VETA PASS   FAIR      34   3  27 SW22G35     N/A  WCI  22
SAGUACHE       FAIR      37  -4  17 NW14G20   30.12R
$$

COZ035-036-038>040-210700-
...NORTHERN COLORADO FRONT RANGE...

CITY           SKY/WX    TMP DP  RH WIND       PRES   REMARKS
DENVER INTL AP MOCLDY    56   6  13 W15       29.91R
DMNS CITY PARK   N/A     53  11  19 E9        29.91R
AURORA         MOCLDY    53  13  20 SW12      29.92R
FRONT RANGE AP FAIR      52  12  20 W17G24    29.91R
ERIE MUNI ARPT FAIR      52   7  16 CALM      29.93R
BOULDER MUN AP FAIR      55  12  18 NE3       29.87R
CENTENNIAL     MOCLDY    48  17  29 SW7       29.93R
BROOMFIELD     FAIR      55   9  15 W25G39    29.91R
FORT COLLINS   FAIR      56  13  18 CALM      29.86R
LONGMONT       FAIR      60  13  15 W21G33    29.88R
$$

COZ041-046-047-076>085-087-088-210700-
...PIKES PEAK/PALMER DIVIDE AND SOUTHERN FOOTHILLS...

CITY           SKY/WX    TMP DP  RH WIND       PRES   REMARKS
COLO. SPRINGS  CLOUDY    50  13  22 N10       29.94S
A. F. ACADEMY  FAIR      49  12  22 NW9       29.96R
SCHRIEVER AFB  MOCLDY    46   9  22 N6        29.96R
CHEYENNE MTN   MOCLDY    55  14  20 N6G17     29.90R
ELLICOTT         N/A    N/A N/A N/A CALM      29.94R
FALCON         FAIR      47   9  22 NW9       29.98R
FORT CARSON    FAIR      52  13  21 SW6       29.92R
LIMON          CLOUDY    40  16  37 CALM      29.92R
MONUMENT HILL  FAIR      36  16  44 SW5       29.99R
CANON CITY     FAIR      52  14  22 NW7       29.94S
WALSENBURG     NOT AVBL
TRINIDAD       FAIR      50  12  21 NW7       29.93R
$$

COZ042>045-048>051-090-091-210700-
...NORTHEAST COLORADO...

CITY           SKY/WX    TMP DP  RH WIND       PRES   REMARKS
GREELEY ARPT   FAIR      54  14  20 W9        29.87R
AKRON          CLOUDY    48  16  27 W13       29.84F
BURLINGTON     FAIR      40  17  39 S5        29.86F
WRAY           NOT AVBL
YUMA           FAIR      37  23  56 SW8       29.83F
STERLING       CLOUDY    55  19  24 NW10      29.80F
HOLYOKE        FAIR      46  19  34 NW7       29.81S
FORT MORGAN    CLOUDY    47  14  27 S5        29.86F
$$

COZ086-089-092>099-210700-
...SOUTHEAST COLORADO...

CITY           SKY/WX    TMP DP  RH WIND       PRES   REMARKS
PUEBLO         FAIR      47  16  29 CALM      29.89S
LA JUNTA       FAIR      41  15  35 SE5       29.86S
LAMAR          FAIR      28  11  48 SW8       29.83F WCI  20
SPRINGFIELD      N/A     39  19  44 NW9       29.86S
$$




USA.gov is the U.S. government's official web portal to all federal, state and local government web resources and services.